Regional Weather Roundup
Issued by NWS

Home | Current Version | Previous Version | Text Only | Print | Product List | Glossary Off
Versions: 1 2 3 4 5 6 7 8 9 10 11 12 13 14 15 16 17 18 19 20 21 22 23 24 25 26 27 28 29 30 31 32 33 34 35 36 37 38 39 40 41 42 43 44 45 46 47 48 49 50

000
ASUS43 KMKX 270617
RWRWI

WISCONSIN REGIONAL WEATHER ROUNDUP
NATIONAL WEATHER SERVICE MILWAUKEE/SULLIVAN WI
100 AM CDT WED MAY 27 2015

NOTE: "FAIR" INDICATES FEW OR NO CLOUDS BELOW 12,000 FEET WITH NO
SIGNIFICANT WEATHER AND/OR OBSTRUCTIONS TO VISIBILITY.

WIZ001-002-006>008-014>016-023>028-270700-
NORTHWEST WISCONSIN

CITY           SKY/WX    TMP DP  RH WIND       PRES   REMARKS
SUPERIOR ARPT  CLOUDY    50  50  99 CALM      29.79S
ASHLAND        LGT RAIN  52  52 100 SW3       29.78S FOG
6HR MIN TEMP:  51; 6HR MAX TEMP:  54; 6HR PCP:  0.12;

HAYWARD        LGT RAIN  53  52  96 CALM      29.78F
6HR MIN TEMP:  53; 6HR MAX TEMP:  55; 6HR PCP:  0.21;

SIREN          CLOUDY    53  53  97 CALM      29.81R
CUMBERLAND     DRIZZLE   54  52  94 N5        29.79F
RICE LAKE      LGT RAIN  56  54  94 NW5       29.80F
CHETEK         LGT RAIN  55  55  99 NW3       29.78F
LADYSMITH      DRIZZLE   54  53  96 NW9       29.78R
EAU CLAIRE     NOT AVBL
MENOMONIE      DRIZZLE   58  57  99 W5        29.80S
NEW RICHMOND   CLOUDY    55  55 100 W5        29.81S FOG
OSCEOLA        CLOUDY    56  56 100 W5        29.84R
$$

WIZ003>005-009-010-017-018-270700-
NORTH CENTRAL WISCONSIN

CITY           SKY/WX    TMP DP  RH WIND       PRES   REMARKS
MANITOWISH WTR LGT RAIN  50  50 100 N8        29.72R
ARBOR VITAE    LGT RAIN  57  55  95 N9G16     29.71R
WOODRUFF       LGT RAIN  57  55  95 N9G16     29.71R
RHINELANDER    LGT RAIN  57  56  96 NW7       29.69R
6HR MIN TEMP:  57; 6HR MAX TEMP:  62; 6HR PCP:  0.09;

EAGLE RIVER    DRIZZLE   56  56 100 N10       29.67S
LAND O LAKES   CLOUDY    55  55  99 N9        29.69F
PHILLIPS       RAIN      51  51  99 NW6       29.74R
TOMAHAWK       HVY RAIN  56  55  95 W9        29.70R
MEDFORD        LGT RAIN  55  55  97 NW12      29.72S
MERRILL        HVY RAIN N/A N/A N/A NW10      29.70R
$$

WIZ029-030-035-036-043>047-270700-
CENTRAL WISCONSIN

CITY           SKY/WX    TMP DP  RH WIND       PRES   REMARKS
WAUSAU         HVY RAIN  59  58  96 VRB3G17   29.65S FOG
6HR MIN TEMP:  59; 6HR MAX TEMP:  63; 6HR PCP:  1.17;

MOSINEE        LGT RAIN  59  59 100 NW14G20   29.68R
MARSHFIELD     LGT RAIN  58  55  90 W9G21     29.73R
6HR MIN TEMP:  58; 6HR MAX TEMP:  64; 6HR PCP:  0.81;

STEVENS POINT  RAIN      59  58  97 W9G17     29.68R
WAUPACA        CLOUDY    63  62  97 SW22G30   29.66R
WAUTOMA        NOT AVBL
WISC RAPIDS    CLOUDY    60  57  89 W12G21    29.74R
6HR MIN TEMP:  60; 6HR MAX TEMP:  66; 6HR PCP:  0.25;

CAMP DOUGLAS   MOCLDY    61  61 100 W13       29.76R
$$

WIZ011>013-019>022-031-037>040-048>050-270700-
NORTHEAST WISCONSIN

CITY           SKY/WX    TMP DP  RH WIND       PRES   REMARKS
ANTIGO         CLOUDY    59  58  98 N9        29.64S
SHAWANO        CLOUDY    63  61  94 S6        29.61F FOG
OCONTO         CLOUDY    63  61  94 SW13G20   29.61F
STURGEON BAY   CLOUDY    63  55  77 SW14G23   29.65S
6HR MIN TEMP:  52; 6HR MAX TEMP:  63;

GREEN BAY      CLOUDY    65  58  78 SW20G29   29.63F
6HR MIN TEMP:  64; 6HR MAX TEMP:  71; 6HR PCP:  0.01;

MANITOWOC      NOT AVBL
APPLETON       CLOUDY    63  55  77 SW23G33   29.67S
CLINTONVILLE   CLOUDY    61  59  94 SW12      29.61F FOG
OSHKOSH        CLOUDY    64  56  75 SW16G28   29.70S
6HR MIN TEMP:  64; 6HR MAX TEMP:  69;

$$

WIZ032>034-041-042-053>061-270700-
SOUTHWEST WISCONSIN

CITY           SKY/WX    TMP DP  RH WIND       PRES   REMARKS
LA CROSSE      CLOUDY    62  58  86 W5        29.79S
6HR MIN TEMP:  62; 6HR MAX TEMP:  64; 6HR PCP:  0.02;

SPARTA         CLOUDY    60  58  95 W5        29.78S
VIROQUA        CLOUDY    58  58 100 SW8       29.81R
BOSCOBEL       PTCLDY    60  57  89 CALM      29.81S
6HR MIN TEMP:  59; 6HR MAX TEMP:  67;

PRAIRIE DU CHI CLOUDY    60  58  91 CALM      29.81S
PLATTEVILLE    PTCLDY    58  57  97 CALM      29.82F
$$

WIZ056-057-062-063-064-067-068-270700-
SOUTH CENTRAL WISCONSIN

CITY           SKY/WX    TMP DP  RH WIND       PRES   REMARKS
REEDSBURG      PTCLDY    59  57  92 SW8       29.77S
BARABOO/DELLS  PTCLDY    59  56  88 SW7       29.77S
LONE ROCK      NOT AVBL
MINERAL POINT  PTCLDY    61  59  94 SW6       29.82S
MADISON        PTCLDY    62  57  83 SW7       29.79S
6HR MIN TEMP:  62; 6HR MAX TEMP:  67; 6HR PCP: TRACE;

MIDDLETON      PTCLDY    62  59  91 SW8       29.80S
WATERTOWN      PTCLDY    62  61  99 SW12      29.78F
MONROE         PTCLDY    61  57  88 SW8       29.82S
JANESVILLE     CLOUDY    64  61  88 SW7       29.81S
$$

WIZ051-052-058>065-066-070>072-270700-
SOUTHEAST WISCONSIN

CITY           SKY/WX    TMP DP  RH WIND       PRES   REMARKS
MILWAUKEE      MOCLDY    66  59  78 SW14      29.79S
6HR MIN TEMP:  64; 6HR MAX TEMP:  72;

WAUKESHA       PTCLDY    61  55  82 SW8       29.80F
MILWAUKEE/TIMM PTCLDY    63  55  77 SW10G16   29.79S
RACINE         CLOUDY    66  60  81 SW10      29.81F
6HR MIN TEMP:  66; 6HR MAX TEMP:  71;

BURLINGTON     RAIN      62  60  94 SW7       29.81S
KENOSHA        CLOUDY    65  62  90 SW8       29.81F
6HR MIN TEMP:  65; 6HR MAX TEMP:  70; 6HR PCP:  0.03;

FOND DU LAC    CLOUDY    63  57  81 W12G24    29.73S
6HR MIN TEMP:  63; 6HR MAX TEMP:  69;

SHEBOYGAN      CLEAR     63  57  81 SW20G25   29.72S
6HR MIN TEMP:  62; 6HR MAX TEMP:  67; 6HR PCP:  0.04;

WEST BEND      FAIR      63  55  77 SW13      29.76S
JUNEAU         PTCLDY    60  57  89 SW13      29.78S
$$

LSZ147-162-270700-
LAKE SUPERIOR

STATION/POSITION TIME  TEMP    WIND        PRES    WAVE
                       AIR SEA DIR/SP/G            HT/PER
                 (UTC) (F)     (DEG/KT/KT) (MB)    (FT/S)
W MID LAKE BUOY  0450   43 37   40/  6/  8 1080.0R   0
DEVILS ISLAND    0500   48     260/ 10/ 10 1086.0S
PORT WING        0440   50     290/  6/  7   N/A
SAXON HARBOR     0500   48        CALM     1081.0
$$

LMZ867-665-643>646-270700-
LAKE MICHIGAN

STATION/POSITION TIME  TEMP    WIND        PRES    WAVE
                       AIR SEA DIR/SP/G            HT/PER
                 (UTC) (F)     (DEG/KT/KT) (MB)    (FT/S)
CHAMBERS ISLAND  0400   55     130/  4/  6 1041.0F
N MID LAKE BUOY  0450   44 37  190/ 16/ 16 1044.0F   2/ 3
NORTHPORT PIER   0400   48     160/ 10/ 13 1044.0F
SISTER BAY       0548   49     160/ 10/ 14   N/A
KEWAUNEE LAKESHO 0500          220/ 12/ 19 1039.0S
SHEBOYGAN LAKESH 0500   65     220/ 20/ 23 1067.0R
PORT WASHINGTON  0400   66     230/ 10/ 20 1081.0R
ATWATER BUOY     0530   62 44  220/ 14/ 16   N/A
MILWAUKEE LAKESH 0515   65     230/ 12/ 16   N/A
S MID LAKE BUOY  0450   47 38  190/ 14/ 16   N/A     2/ 4
KENOSHA   LAKESH 0500   67     210/  7/ 15   N/A
$$

TC  - TEMPERATURE IN CELSIUS
VSB - VISIBILITY IN STATUTE MILES
WCI - WIND CHILL INDEX
HX  - HEAT INDEX




USA.gov is the U.S. government's official web portal to all federal, state and local government web resources and services.